Flag Weather past 2 weeks in Redmond, Washington, U.S.A.

Now
52 °F

Light rain. Fog.


Feels Like: 52 °F
Forecast: 54 / 58 °F
Wind: No wind

Location: Seattle Boeing Field

Current Time: Nov 25, 2014 at 4:45:21 PM

Latest Report: Nov 25, 2014 at 3:53 PM


Visibility: 3 mi

Pressure: 30.18 "Hg

Humidity: 86%

Dew point: 48 °F

Location of RedmondLocation

Historic Weather in Redmond — Graph

°F

Redmond temperature yesterday

Maximum temperature yesterday: 56 °F (at 11:53 PM)
Minimum temperature yesterday: 39 °F (at 2:53 AM)
Average temperature yesterday: 47 °F

Past Weeks' High & Low Weather Summary

 TemperatureHumidityPressure
High57 °F (Nov 23, 12:53 PM)90% (Nov 25, 4:53 AM)30.54 "Hg (Nov 25, 4:53 AM)
Low27 °F (Nov 15, 6:53 AM)16% (Nov 12, 1:53 PM)29.31 "Hg (Nov 21, 5:53 PM)
Average44 °F61%30.13 "Hg
* Reported Nov 10 2:53 PM — Nov 25 2:53 PM, Redmond, Weather by CustomWeather, © 2014

Note: Actual official high and low records may vary slightly from our data, if they occured in-between our weather recording intervals... More about our weather records

Advertising

Redmond weather history for previous 24 hours

 ConditionsComfort  
Time TempWeatherWind HumidityBarometerVisibility
2:53 PM
Nov 25
52 °FLight rain. Fog.No wind86%30.19 "Hg3 mi
1:53 PM51 °FFog.No wind86%30.19 "Hg2 mi
12:53 PM51 °FFog.No wind86%30.20 "Hg2 mi
11:53 AM51 °FLight rain. Fog.3 mph86%30.22 "Hg2 mi
10:53 AM51 °FFog.3 mph86%30.22 "Hg4 mi
9:53 AM52 °FFog.No wind86%30.22 "Hg4 mi
8:53 AM52 °FFog.3 mph86%30.20 "Hg4 mi
7:53 AM52 °FFog.3 mph86%30.19 "Hg2 mi
6:53 AM53 °FLight rain. Fog.No wind86%30.17 "Hg4 mi
5:53 AM54 °FLight rain. Fog.No wind86%30.16 "Hg4 mi
4:53 AM55 °FLight rain. Fog.No wind90%30.15 "Hg2 mi
3:53 AM55 °FLight rain. Fog.No wind87%30.15 "Hg3 mi
2:53 AM56 °FFog.No wind84%30.15 "Hg4 mi
1:53 AM56 °FLow clouds.6 mph84%30.11 "Hg10 mi
12:53 AM56 °FLow clouds.14 mph84%30.09 "Hg10 mi
11:53 PM
Nov 24
56 °FLow clouds.13 mph81%30.10 "Hg10 mi
10:53 PM55 °FDrizzle. Low clouds.13 mph83%30.08 "Hg10 mi
9:53 PM51 °FDrizzle. Fog.10 mph86%30.09 "Hg3 mi
9:04 PM50 °FDrizzle. Fog.10 mph82%30.10 "Hg3 mi
8:53 PM50 °FDrizzle. Fog.8 mph83%30.10 "Hg2 mi
7:53 PM49 °FFog.9 mph84%30.11 "Hg6 mi
6:53 PM51 °FMostly cloudy.13 mph71%30.14 "Hg10 mi
5:53 PM48 °FMostly cloudy.7 mph83%30.16 "Hg10 mi
4:53 PM50 °FLight rain. Overcast.7 mph77%30.17 "Hg10 mi
Weather by CustomWeather, © 2014

See weather overviewHow to use our weather pages